TimeMDT,TemperatureF,Dew PointF,Humidity,Sea Level PressureIn,VisibilityMPH,Wind Direction,Wind SpeedMPH,Gust SpeedMPH,PrecipitationIn,Events,Conditions,WindDirDegrees,DateUTC
12:53 AM,51.1,32.0,48,29.67,10.0,ESE,13.8,-,N/A,,Scattered Clouds,110,2013-10-28 06:53:00
1:53 AM,52.0,32.0,47,29.66,10.0,ESE,13.8,-,N/A,,Mostly Cloudy,110,2013-10-28 07:53:00
2:53 AM,52.0,30.9,45,29.64,10.0,ESE,11.5,-,N/A,,Partly Cloudy,110,2013-10-28 08:53:00
3:53 AM,46.9,32.0,56,29.65,10.0,East,9.2,-,N/A,,Scattered Clouds,90,2013-10-28 09:53:00
4:53 AM,48.0,30.9,52,29.65,10.0,ESE,11.5,-,N/A,,Partly Cloudy,110,2013-10-28 10:53:00
5:53 AM,48.0,30.9,52,29.66,10.0,ESE,18.4,-,N/A,,Partly Cloudy,120,2013-10-28 11:53:00
6:53 AM,48.0,30.0,50,29.68,10.0,ESE,12.7,-,N/A,,Clear,110,2013-10-28 12:53:00
7:53 AM,48.9,28.0,44,29.70,10.0,ESE,12.7,-,N/A,,Clear,120,2013-10-28 13:53:00
8:53 AM,53.1,28.9,40,29.70,10.0,ESE,11.5,-,N/A,,Clear,120,2013-10-28 14:53:00
9:53 AM,59.0,28.0,31,29.68,10.0,SE,18.4,-,N/A,,Partly Cloudy,130,2013-10-28 15:53:00
10:53 AM,63.0,27.0,26,29.66,10.0,SSE,21.9,27.6,N/A,,Partly Cloudy,150,2013-10-28 16:53:00
11:53 AM,66.0,26.1,22,29.63,10.0,SSW,19.6,29.9,N/A,,Scattered Clouds,200,2013-10-28 17:53:00
12:53 PM,66.0,21.9,19,29.61,10.0,South,25.3,35.7,N/A,,Scattered Clouds,190,2013-10-28 18:53:00
1:53 PM,66.0,19.9,17,29.60,9.0,South,19.6,28.8,N/A,,Scattered Clouds,190,2013-10-28 19:53:00
2:53 PM,66.0,21.0,18,29.57,10.0,South,19.6,32.2,N/A,,Scattered Clouds,190,2013-10-28 20:53:00
3:53 PM,68.0,19.0,15,29.56,10.0,South,19.6,29.9,N/A,,Partly Cloudy,170,2013-10-28 21:53:00
4:53 PM,66.9,17.1,15,29.54,10.0,South,20.7,32.2,N/A,,Scattered Clouds,190,2013-10-28 22:53:00
5:53 PM,64.0,18.0,17,29.56,10.0,SE,9.2,26.5,N/A,,Scattered Clouds,140,2013-10-28 23:53:00
6:53 PM,62.1,19.0,19,29.56,10.0,South,17.3,25.3,N/A,,Clear,190,2013-10-29 00:53:00
7:12 PM,62.6,19.4,19,29.68,10.0,South,18.4,35.7,N/A,,Clear,180,2013-10-29 01:12:00
7:53 PM,57.9,21.0,24,29.58,10.0,ESE,10.4,-,N/A,,Clear,110,2013-10-29 01:53:00
8:53 PM,59.0,23.0,25,29.57,10.0,South,11.5,-,N/A,,Clear,180,2013-10-29 02:53:00
9:53 PM,61.0,21.0,21,29.59,10.0,South,11.5,-,N/A,,Clear,190,2013-10-29 03:53:00
10:53 PM,59.0,21.9,24,29.62,10.0,SW,13.8,23.0,N/A,,Clear,230,2013-10-29 04:53:00
11:53 PM,59.0,21.9,24,29.64,10.0,SSW,21.9,32.2,N/A,,Scattered Clouds,200,2013-10-29 05:53:00